{"data":{"norad_id":87541,"epoch":"2026-05-24T01:46:39.912384Z","epoch_age_seconds":169131,"freshness":"FRESH","line1":"1 87541U          26144.07407306  .00000119  00000+0  31379-3 0  9995","line2":"2 87541  99.6874 354.7360 0059041 229.1976 283.4893 13.35644190603702","mean_motion":13.3564419,"eccentricity":0.0059041,"inclination_deg":99.6874,"raan_deg":354.736,"arg_perigee_deg":229.1976,"mean_anomaly_deg":283.4893,"bstar":0.00031379,"rev_number":60370,"period_min":107.81314445728,"perigee_km":1081.2465370864,"apogee_km":1169.8515627007,"semimajor_km":7503.6860498936,"source":"CELESTRAK","updated_at":"2026-05-25T13:38:11.671744Z"}}